Time,TemperatureF,DewpointF,PressureIn,WindDirection,WindDirectionDegrees,WindSpeedMPH,WindSpeedGustMPH,Humidity,HourlyPrecipIn,Conditions,Clouds,dailyrainin,SoftwareType,DateUTC
2013-05-09 00:03:00,55.0,52.0,30.05,ESE,117,1.0,4.0,90,0.00,,,0.88,,2013-05-09 04:03:00,
2013-05-09 00:12:00,55.0,52.0,30.05,ESE,117,1.0,4.0,90,0.00,,,0.88,,2013-05-09 04:12:00,
2013-05-09 00:23:00,55.0,52.0,30.05,South,180,0.0,3.0,90,0.00,,,0.88,,2013-05-09 04:23:00,
2013-05-09 00:33:00,54.0,51.0,30.04,ESE,105,0.0,3.0,90,0.00,,,0.88,,2013-05-09 04:33:00,
2013-05-09 00:43:00,54.0,51.0,30.04,ESE,105,0.0,3.0,90,0.00,,,0.88,,2013-05-09 04:43:00,
2013-05-09 00:53:00,54.0,51.0,30.04,ESE,103,0.0,3.0,90,0.00,,,0.88,,2013-05-09 04:53:00,
2013-05-09 01:02:00,53.0,50.0,30.04,ESE,105,0.0,0.0,90,0.00,,,0.88,,2013-05-09 05:02:00,
2013-05-09 01:12:00,53.0,50.0,30.04,ESE,105,0.0,0.0,90,0.00,,,0.88,,2013-05-09 05:12:00,
2013-05-09 01:22:00,53.0,50.0,30.04,ESE,107,0.0,3.0,91,0.00,,,0.88,,2013-05-09 05:22:00,
2013-05-09 01:32:00,53.0,50.0,30.03,SE,130,0.0,2.0,91,0.00,,,0.88,,2013-05-09 05:32:00,
2013-05-09 01:42:00,53.0,50.0,30.03,SE,130,0.0,2.0,91,0.00,,,0.88,,2013-05-09 05:42:00,
2013-05-09 01:52:00,54.0,51.0,30.03,SSE,149,0.0,1.0,91,0.00,,,0.88,,2013-05-09 05:52:00,
2013-05-09 02:02:00,53.0,50.0,30.02,ENE,64,1.0,3.0,91,0.00,,,0.88,,2013-05-09 06:02:00,
2013-05-09 02:12:00,53.0,50.0,30.02,ENE,64,1.0,3.0,91,0.00,,,0.88,,2013-05-09 06:12:00,
2013-05-09 02:21:00,53.0,50.0,30.01,NNE,26,0.0,2.0,91,0.00,,,0.88,,2013-05-09 06:21:00,
2013-05-09 02:32:00,53.0,50.0,30.01,NNE,26,0.0,2.0,91,0.00,,,0.88,,2013-05-09 06:32:00,
2013-05-09 02:42:00,53.0,50.0,30.01,NNE,26,0.0,2.0,91,0.00,,,0.88,,2013-05-09 06:42:00,
2013-05-09 02:52:00,53.0,50.0,30.01,NNE,25,0.0,1.0,91,0.00,,,0.88,,2013-05-09 06:52:00,
2013-05-09 03:01:00,53.0,50.0,30.01,NNE,27,0.0,0.0,91,0.00,,,0.88,,2013-05-09 07:01:00,
2013-05-09 03:12:00,53.0,50.0,30.00,NNE,27,0.0,2.0,91,0.00,,,0.88,,2013-05-09 07:12:00,
2013-05-09 03:21:00,53.0,50.0,30.00,NNE,27,0.0,2.0,91,0.00,,,0.88,,2013-05-09 07:21:00,
2013-05-09 03:32:00,53.0,50.0,30.00,NNE,27,0.0,1.0,91,0.00,,,0.88,,2013-05-09 07:32:00,
2013-05-09 03:42:00,53.0,50.0,30.00,NNE,27,0.0,1.0,91,0.00,,,0.88,,2013-05-09 07:42:00,
2013-05-09 03:52:00,52.0,49.0,30.00,NNE,26,0.0,1.0,91,0.00,,,0.88,,2013-05-09 07:52:00,
2013-05-09 04:02:00,52.0,50.0,30.00,NNE,26,0.0,0.0,92,0.00,,,0.88,,2013-05-09 08:02:00,
2013-05-09 04:11:00,52.0,50.0,30.00,NNE,26,0.0,0.0,92,0.00,,,0.88,,2013-05-09 08:11:00,
2013-05-09 04:21:00,53.0,51.0,29.99,NNE,27,0.0,2.0,92,0.00,,,0.88,,2013-05-09 08:21:00,
2013-05-09 04:32:00,52.0,50.0,29.98,NE,52,0.0,2.0,92,0.00,,,0.88,,2013-05-09 08:32:00,
2013-05-09 04:42:00,52.0,50.0,29.98,NE,52,0.0,2.0,92,0.00,,,0.88,,2013-05-09 08:42:00,
2013-05-09 04:52:00,52.0,49.0,29.99,NE,51,0.0,0.0,91,0.00,,,0.88,,2013-05-09 08:52:00,
2013-05-09 05:02:00,53.0,51.0,29.98,NE,51,0.0,1.0,92,0.00,,,0.88,,2013-05-09 09:02:00,
2013-05-09 05:11:00,53.0,51.0,29.98,NE,51,0.0,1.0,92,0.00,,,0.88,,2013-05-09 09:11:00,
2013-05-09 05:21:00,52.0,50.0,29.98,NE,51,0.0,1.0,92,0.00,,,0.88,,2013-05-09 09:21:00,
2013-05-09 05:32:00,52.0,50.0,29.98,ENE,59,0.0,3.0,92,0.00,,,0.88,,2013-05-09 09:32:00,
2013-05-09 05:43:00,52.0,50.0,29.98,ENE,59,0.0,3.0,92,0.00,,,0.88,,2013-05-09 09:43:00,
2013-05-09 05:53:00,52.0,50.0,29.98,East,89,0.0,2.0,92,0.00,,,0.88,,2013-05-09 09:53:00,
2013-05-09 06:02:00,52.0,50.0,29.98,ESE,103,0.0,2.0,92,0.00,,,0.88,,2013-05-09 10:02:00,
2013-05-09 06:12:00,52.0,50.0,29.98,ESE,103,0.0,0.0,92,0.00,,,0.88,,2013-05-09 10:12:00,
2013-05-09 06:22:00,52.0,50.0,29.98,ESE,103,0.0,0.0,92,0.00,,,0.88,,2013-05-09 10:22:00,
2013-05-09 06:33:00,53.0,51.0,29.98,East,80,1.0,2.0,92,0.00,,,0.88,,2013-05-09 10:33:00,
2013-05-09 06:42:00,53.0,51.0,29.98,East,80,1.0,2.0,92,0.00,,,0.88,,2013-05-09 10:42:00,
2013-05-09 06:53:00,53.0,51.0,29.99,NNE,33,0.0,3.0,92,0.00,,,0.88,,2013-05-09 10:53:00,
2013-05-09 07:02:00,53.0,51.0,29.99,East,85,0.0,2.0,92,0.00,,,0.88,,2013-05-09 11:02:00,
2013-05-09 07:12:00,53.0,51.0,29.99,East,85,0.0,0.0,92,0.00,,,0.88,,2013-05-09 11:12:00,
2013-05-09 07:22:00,53.0,51.0,29.99,East,85,0.0,0.0,92,0.00,,,0.88,,2013-05-09 11:22:00,
2013-05-09 07:32:00,53.0,51.0,29.99,East,85,0.0,0.0,92,0.00,,,0.88,,2013-05-09 11:32:00,
2013-05-09 07:42:00,53.0,51.0,29.99,East,85,0.0,0.0,92,0.00,,,0.88,,2013-05-09 11:42:00,
2013-05-09 07:52:00,54.0,52.0,30.00,East,85,0.0,0.0,92,0.00,,,0.88,,2013-05-09 11:52:00,
2013-05-09 08:01:00,54.0,52.0,29.99,East,85,0.0,1.0,92,0.00,,,0.88,,2013-05-09 12:01:00,
2013-05-09 08:11:00,55.0,53.0,29.99,NNE,18,0.0,2.0,92,0.00,,,0.88,,2013-05-09 12:11:00,
2013-05-09 08:22:00,55.0,53.0,29.99,NNE,18,0.0,2.0,92,0.00,,,0.88,,2013-05-09 12:22:00,
2013-05-09 08:32:00,55.0,53.0,29.99,NNE,18,0.0,2.0,92,0.00,,,0.88,,2013-05-09 12:32:00,
2013-05-09 08:42:00,55.0,53.0,29.99,NNE,24,0.0,1.0,92,0.00,,,0.88,,2013-05-09 12:42:00,
2013-05-09 08:52:00,55.0,53.0,29.99,NNE,24,0.0,1.0,92,0.00,,,0.88,,2013-05-09 12:52:00,
2013-05-09 09:01:00,56.0,54.0,29.99,NNE,30,0.0,3.0,92,0.00,,,0.88,,2013-05-09 13:01:00,
2013-05-09 09:12:00,56.0,54.0,29.99,NNE,30,0.0,3.0,92,0.00,,,0.88,,2013-05-09 13:12:00,
2013-05-09 09:22:00,55.0,52.0,29.99,ENE,78,0.0,2.0,91,0.00,,,0.79,,2013-05-09 13:22:00,
2013-05-09 09:32:00,55.0,53.0,29.98,ENE,78,0.0,0.0,92,0.00,,,0.79,,2013-05-09 13:32:00,
2013-05-09 09:42:00,55.0,53.0,29.98,ENE,78,0.0,0.0,92,0.00,,,0.79,,2013-05-09 13:42:00,
2013-05-09 09:52:00,56.0,54.0,29.98,NNE,22,0.0,1.0,92,0.00,,,0.79,,2013-05-09 13:52:00,
2013-05-09 10:02:00,56.0,53.0,29.98,NE,56,0.0,3.0,91,0.00,,,0.79,,2013-05-09 14:02:00,
2013-05-09 10:11:00,56.0,53.0,29.98,NE,56,0.0,3.0,91,0.00,,,0.79,,2013-05-09 14:11:00,
2013-05-09 10:22:00,58.0,55.0,29.98,NE,40,0.0,3.0,91,0.00,,,0.62,,2013-05-09 14:22:00,
2013-05-09 10:32:00,59.0,56.0,29.98,NE,40,0.0,3.0,89,0.00,,,0.62,,2013-05-09 14:32:00,
2013-05-09 10:42:00,59.0,56.0,29.98,NE,40,0.0,3.0,89,0.00,,,0.62,,2013-05-09 14:42:00,
2013-05-09 10:52:00,60.0,56.0,29.97,ESE,106,1.0,4.0,88,0.00,,,0.62,,2013-05-09 14:52:00,
2013-05-09 11:01:00,60.0,56.0,29.97,ESE,107,2.0,4.0,86,0.00,,,0.62,,2013-05-09 15:01:00,
2013-05-09 11:11:00,60.0,56.0,29.97,ESE,107,2.0,4.0,86,0.00,,,0.62,,2013-05-09 15:11:00,
2013-05-09 11:22:00,61.0,56.0,29.97,East,96,2.0,6.0,85,0.00,,,0.34,,2013-05-09 15:22:00,
2013-05-09 11:33:00,61.0,56.0,29.97,East,92,0.0,4.0,84,0.00,,,0.34,,2013-05-09 15:33:00,
2013-05-09 11:43:00,60.0,55.0,29.97,ESE,121,1.0,4.0,85,0.00,,,0.34,,2013-05-09 15:43:00,
2013-05-09 11:53:00,60.0,55.0,29.97,ESE,121,1.0,4.0,85,0.00,,,0.34,,2013-05-09 15:53:00,
2013-05-09 12:03:00,60.0,55.0,29.96,South,169,1.0,5.0,84,0.00,,,0.34,,2013-05-09 16:03:00,
2013-05-09 12:12:00,60.0,55.0,29.96,South,169,1.0,5.0,84,0.00,,,0.34,,2013-05-09 16:12:00,
2013-05-09 12:23:00,61.0,56.0,29.96,South,173,1.0,6.0,84,0.00,,,0.22,,2013-05-09 16:23:00,
2013-05-09 12:33:00,61.0,56.0,29.96,ESE,106,2.0,10.0,83,0.00,,,0.22,,2013-05-09 16:33:00,
2013-05-09 12:42:00,61.0,56.0,29.96,ESE,106,2.0,10.0,83,0.00,,,0.22,,2013-05-09 16:42:00,
2013-05-09 12:53:00,62.0,57.0,29.96,SE,128,2.0,6.0,84,0.01,,,0.23,,2013-05-09 16:53:00,
2013-05-09 13:02:00,62.0,56.0,29.96,West,271,0.0,4.0,81,0.01,,,0.23,,2013-05-09 17:02:00,
2013-05-09 13:12:00,62.0,56.0,29.96,West,271,0.0,4.0,81,0.01,,,0.23,,2013-05-09 17:12:00,
2013-05-09 13:22:00,61.0,55.0,29.96,West,271,0.0,0.0,82,0.01,,,0.23,,2013-05-09 17:22:00,
2013-05-09 13:32:00,61.0,56.0,29.96,West,271,0.0,0.0,83,0.01,,,0.23,,2013-05-09 17:32:00,
2013-05-09 13:42:00,61.0,56.0,29.96,West,271,0.0,0.0,83,0.01,,,0.23,,2013-05-09 17:42:00,
2013-05-09 13:55:00,62.0,56.0,29.95,West,271,0.0,0.0,81,0.00,,,0.23,,2013-05-09 17:55:00,
2013-05-09 14:01:00,61.0,55.0,29.95,West,271,0.0,0.0,82,0.00,,,0.23,,2013-05-09 18:01:00,
2013-05-09 14:12:00,61.0,55.0,29.95,West,271,0.0,0.0,82,0.00,,,0.23,,2013-05-09 18:12:00,
2013-05-09 14:22:00,60.0,55.0,29.94,NNW,331,1.0,5.0,83,0.03,,,0.19,,2013-05-09 18:22:00,
2013-05-09 14:32:00,58.0,54.0,29.94,NNW,343,0.0,2.0,87,0.26,,,0.42,,2013-05-09 18:32:00,
2013-05-09 14:42:00,58.0,54.0,29.94,NNW,343,0.0,2.0,87,0.26,,,0.42,,2013-05-09 18:42:00,
2013-05-09 14:52:00,58.0,54.0,29.94,NNW,335,0.0,3.0,88,0.68,,,0.84,,2013-05-09 18:52:00,
2013-05-09 15:01:00,58.0,55.0,29.93,NNW,339,1.0,4.0,90,0.88,,,1.04,,2013-05-09 19:01:00,
2013-05-09 15:12:00,58.0,55.0,29.93,NNW,339,1.0,4.0,90,0.88,,,1.04,,2013-05-09 19:12:00,
2013-05-09 15:21:00,58.0,55.0,29.93,NW,315,1.0,3.0,90,0.85,,,0.89,,2013-05-09 19:21:00,
2013-05-09 15:32:00,58.0,55.0,29.92,NNW,338,1.0,3.0,91,0.63,,,0.90,,2013-05-09 19:32:00,
2013-05-09 15:42:00,58.0,55.0,29.92,NNW,338,1.0,3.0,91,0.63,,,0.90,,2013-05-09 19:42:00,
2013-05-09 15:52:00,59.0,56.0,29.92,NNW,340,0.0,2.0,90,0.13,,,0.90,,2013-05-09 19:52:00,
2013-05-09 16:01:00,59.0,56.0,29.91,NNW,331,0.0,3.0,91,0.01,,,0.90,,2013-05-09 20:01:00,
2013-05-09 16:11:00,59.0,56.0,29.91,NNW,331,0.0,3.0,91,0.01,,,0.90,,2013-05-09 20:11:00,
2013-05-09 16:22:00,59.0,56.0,29.91,NNW,331,0.0,1.0,91,0.02,,,0.91,,2013-05-09 20:22:00,
2013-05-09 16:32:00,59.0,56.0,29.91,NW,306,0.0,2.0,91,0.02,,,0.92,,2013-05-09 20:32:00,
2013-05-09 16:42:00,61.0,58.0,29.92,WNW,288,0.0,1.0,90,0.02,,,0.92,,2013-05-09 20:42:00,
2013-05-09 16:52:00,61.0,58.0,29.92,WNW,288,0.0,1.0,90,0.02,,,0.92,,2013-05-09 20:52:00,
2013-05-09 17:02:00,61.0,58.0,29.92,NW,314,0.0,3.0,90,0.02,,,0.92,,2013-05-09 21:02:00,
2013-05-09 17:12:00,61.0,58.0,29.92,NW,314,0.0,3.0,90,0.02,,,0.92,,2013-05-09 21:12:00,
2013-05-09 17:22:00,61.0,58.0,29.91,NW,325,0.0,1.0,89,0.01,,,0.92,,2013-05-09 21:22:00,
2013-05-09 17:32:00,61.0,57.0,29.91,NW,325,0.0,1.0,88,0.00,,,0.92,,2013-05-09 21:32:00,
2013-05-09 17:43:00,61.0,57.0,29.91,NW,325,0.0,1.0,88,0.00,,,0.92,,2013-05-09 21:43:00,
2013-05-09 17:53:00,61.0,57.0,29.91,NW,325,0.0,1.0,88,0.00,,,0.92,,2013-05-09 21:53:00,
2013-05-09 18:03:00,61.0,58.0,29.91,NW,325,0.0,1.0,89,0.00,,,0.92,,2013-05-09 22:03:00,
2013-05-09 18:13:00,61.0,57.0,29.91,NW,315,0.0,1.0,88,0.00,,,0.92,,2013-05-09 22:13:00,
2013-05-09 18:23:00,61.0,57.0,29.91,NW,315,0.0,1.0,88,0.00,,,0.92,,2013-05-09 22:23:00,
2013-05-09 18:33:00,60.0,56.0,29.91,WNW,283,0.0,1.0,87,0.00,,,0.92,,2013-05-09 22:33:00,
2013-05-09 18:42:00,61.0,57.0,29.91,WNW,284,0.0,1.0,88,0.00,,,0.92,,2013-05-09 22:42:00,
2013-05-09 18:52:00,61.0,57.0,29.91,WNW,284,0.0,1.0,88,0.00,,,0.92,,2013-05-09 22:52:00,
2013-05-09 19:02:00,60.0,56.0,29.92,West,281,0.0,1.0,86,0.00,,,0.92,,2013-05-09 23:02:00,
2013-05-09 19:12:00,60.0,55.0,29.93,WSW,257,0.0,1.0,85,0.00,,,0.92,,2013-05-09 23:12:00,
2013-05-09 19:22:00,60.0,55.0,29.93,WSW,257,0.0,1.0,85,0.00,,,0.92,,2013-05-09 23:22:00,
2013-05-09 19:32:00,59.0,54.0,29.93,WSW,256,0.0,0.0,85,0.00,,,0.92,,2013-05-09 23:32:00,
2013-05-09 19:42:00,59.0,55.0,29.93,WSW,257,0.0,0.0,86,0.00,,,0.92,,2013-05-09 23:42:00,
2013-05-09 19:52:00,59.0,55.0,29.93,WSW,257,0.0,0.0,86,0.00,,,0.92,,2013-05-09 23:52:00,
2013-05-09 20:01:00,58.0,54.0,29.93,WSW,256,0.0,0.0,87,0.00,,,0.92,,2013-05-10 00:01:00,
2013-05-09 20:11:00,58.0,54.0,29.94,WSW,257,0.0,0.0,87,0.00,,,0.92,,2013-05-10 00:11:00,
2013-05-09 20:22:00,58.0,54.0,29.94,WSW,257,0.0,0.0,87,0.00,,,0.92,,2013-05-10 00:22:00,
2013-05-09 20:32:00,58.0,54.0,29.94,WSW,257,0.0,0.0,87,0.00,,,0.92,,2013-05-10 00:32:00,
2013-05-09 20:42:00,57.0,53.0,29.95,WSW,256,0.0,0.0,88,0.00,,,0.92,,2013-05-10 00:42:00,
2013-05-09 20:52:00,57.0,53.0,29.95,WSW,256,0.0,0.0,88,0.00,,,0.92,,2013-05-10 00:52:00,
2013-05-09 21:01:00,57.0,53.0,29.95,WSW,256,0.0,0.0,88,0.00,,,0.92,,2013-05-10 01:01:00,
2013-05-09 21:11:00,57.0,53.0,29.95,WSW,256,0.0,0.0,88,0.00,,,0.92,,2013-05-10 01:11:00,
2013-05-09 21:22:00,57.0,53.0,29.95,WSW,256,0.0,0.0,88,0.00,,,0.92,,2013-05-10 01:22:00,
2013-05-09 21:32:00,57.0,54.0,29.96,WSW,257,0.0,0.0,89,0.00,,,0.92,,2013-05-10 01:32:00,
2013-05-09 21:42:00,57.0,54.0,29.96,WSW,256,0.0,0.0,89,0.00,,,0.92,,2013-05-10 01:42:00,
2013-05-09 21:52:00,57.0,54.0,29.96,WSW,256,0.0,0.0,89,0.00,,,0.92,,2013-05-10 01:52:00,
2013-05-09 22:02:00,56.0,53.0,29.96,WSW,256,0.0,0.0,89,0.00,,,0.92,,2013-05-10 02:02:00,
2013-05-09 22:11:00,56.0,53.0,29.96,WSW,257,0.0,0.0,89,0.00,,,0.92,,2013-05-10 02:11:00,
2013-05-09 22:21:00,56.0,53.0,29.96,WSW,257,0.0,0.0,89,0.00,,,0.92,,2013-05-10 02:21:00,
2013-05-09 22:32:00,56.0,53.0,29.96,WSW,256,0.0,0.0,89,0.00,,,0.92,,2013-05-10 02:32:00,
2013-05-09 22:42:00,56.0,53.0,29.96,WSW,257,0.0,0.0,89,0.00,,,0.92,,2013-05-10 02:42:00,
2013-05-09 22:52:00,56.0,53.0,29.96,WSW,257,0.0,0.0,89,0.00,,,0.92,,2013-05-10 02:52:00,
2013-05-09 23:01:00,55.0,52.0,29.96,WSW,256,0.0,1.0,90,0.00,,,0.92,,2013-05-10 03:01:00,
2013-05-09 23:11:00,55.0,52.0,29.96,WSW,256,0.0,1.0,90,0.00,,,0.92,,2013-05-10 03:11:00,
2013-05-09 23:22:00,55.0,52.0,29.96,WSW,257,0.0,0.0,90,0.00,,,0.92,,2013-05-10 03:22:00,
2013-05-09 23:33:00,55.0,52.0,29.96,WSW,257,0.0,0.0,90,0.00,,,0.92,,2013-05-10 03:33:00,
2013-05-09 23:43:00,55.0,52.0,29.96,WSW,257,0.0,0.0,90,0.00,,,0.92,,2013-05-10 03:43:00,
2013-05-09 23:53:00,55.0,52.0,29.96,WSW,257,0.0,0.0,90,0.00,,,0.92,,2013-05-10 03:53:00,